Tracking 29040 objects as of 16-Jun-2024
HD Live streaming from Space Station
objects crossing your sky now

SL-14 DEB

Track SL-14 DEB now!
10-day predictions


NORAD ID: 26023
Int'l Code: 1991-068AJ
Perigee: 1,456.6 km
Apogee: 1,477.6 km
Inclination: 82.6 °
Period: 115.1 minutes
Semi major axis: 7838 km
RCS: 0.0267 m2 (small)
Launch date: September 28, 1991
Source: Commonwealth of Independent States (former USSR) (CIS)
Launch site: PLESETSK MISSILE AND SPACE COMPLEX (PKMTR)

Note: This is SATELLITE DEBRIS
Your satellite tracking list
Your tracking list is empty




NASA's NSSDC Master Catalog

Two Line Element Set (TLE):
1 26023U 91068AJ  24168.22567465 -.00000061  00000-0 -46031-3 0  9991
2 26023  82.5788 231.0170 0013401 117.1431 301.7776 12.51084714495703
Source of the keplerian elements: AFSPC